TimeEDT,TemperatureF,Dew PointF,Humidity,Sea Level PressureIn,VisibilityMPH,Wind Direction,Wind SpeedMPH,Gust SpeedMPH,PrecipitationIn,Events,Conditions,WindDirDegrees,DateUTC
12:55 AM,31.3,28.2,88,30.25,10.0,West,6.9,-,N/A,,Overcast,280,2013-03-27 04:55:00
1:55 AM,28.0,25.9,92,30.26,10.0,West,5.8,-,N/A,,Partly Cloudy,280,2013-03-27 05:55:00
2:55 AM,27.3,24.8,90,30.26,10.0,West,8.1,-,N/A,,Partly Cloudy,270,2013-03-27 06:55:00
3:55 AM,25.0,23.2,93,30.25,10.0,West,8.1,-,N/A,,Clear,270,2013-03-27 07:55:00
4:55 AM,23.7,22.1,94,30.26,10.0,West,8.1,-,N/A,,Clear,270,2013-03-27 08:55:00
5:55 AM,23.2,21.6,94,30.26,10.0,West,9.2,-,N/A,,Clear,260,2013-03-27 09:55:00
6:55 AM,22.5,21.0,94,30.27,10.0,West,8.1,-,N/A,,Clear,260,2013-03-27 10:55:00
7:55 AM,21.2,19.8,94,30.28,10.0,West,8.1,-,N/A,,Clear,270,2013-03-27 11:55:00
8:55 AM,24.4,22.3,91,30.30,10.0,West,8.1,-,N/A,,Clear,270,2013-03-27 12:55:00
9:55 AM,28.6,25.3,88,30.31,10.0,West,8.1,-,N/A,,Clear,280,2013-03-27 13:55:00
10:55 AM,31.5,27.1,84,30.32,10.0,West,9.2,-,N/A,,Clear,260,2013-03-27 14:55:00
11:55 AM,33.8,27.5,78,30.32,10.0,West,8.1,-,N/A,,Clear,260,2013-03-27 15:55:00
12:55 PM,36.0,28.6,75,30.32,10.0,West,9.2,-,N/A,,Clear,260,2013-03-27 16:55:00
1:55 PM,37.6,28.6,70,30.33,10.0,West,11.5,-,N/A,,Clear,260,2013-03-27 17:55:00
2:55 PM,38.8,29.8,70,30.32,10.0,West,13.8,-,N/A,,Mostly Cloudy,260,2013-03-27 18:55:00
3:20 PM,37.4,30.2,75,30.32,10.0,West,12.7,-,N/A,Rain,Light Rain,280,2013-03-27 19:20:00
3:29 PM,37.4,30.2,75,30.32,10.0,West,10.4,-,N/A,,Overcast,270,2013-03-27 19:29:00
3:49 PM,37.4,30.2,75,30.31,10.0,West,9.2,-,N/A,Snow,Light Snow,270,2013-03-27 19:49:00
3:55 PM,37.2,29.8,75,30.31,10.0,West,8.1,-,0.00,Snow,Light Snow,270,2013-03-27 19:55:00
4:00 PM,37.4,28.4,70,30.31,10.0,West,9.2,-,N/A,,Overcast,270,2013-03-27 20:00:00
4:55 PM,38.5,27.7,65,30.30,10.0,West,10.4,-,0.00,,Overcast,270,2013-03-27 20:55:00
5:55 PM,38.3,26.8,63,30.30,10.0,West,11.5,-,N/A,,Mostly Cloudy,270,2013-03-27 21:55:00
6:55 PM,36.7,27.1,68,30.31,10.0,West,10.4,-,N/A,,Overcast,270,2013-03-27 22:55:00
7:55 PM,35.2,28.0,75,30.31,10.0,West,9.2,-,N/A,,Mostly Cloudy,270,2013-03-27 23:55:00
8:55 PM,34.9,27.3,74,30.31,10.0,West,10.4,-,N/A,,Overcast,260,2013-03-28 00:55:00
9:55 PM,34.5,26.4,72,30.32,10.0,WNW,5.8,-,N/A,,Overcast,290,2013-03-28 01:55:00
10:55 PM,34.0,26.8,75,30.33,10.0,WNW,5.8,-,N/A,,Overcast,300,2013-03-28 02:55:00
11:55 PM,31.3,26.6,83,30.33,10.0,WNW,4.6,-,N/A,,Scattered Clouds,290,2013-03-28 03:55:00